Tracking 19576 objects as of 18-Feb-2019
HD Live streaming from Space Station
objects crossing your sky now

DMSP 5D-2 F6 DEB

Track DMSP 5D-2 F6 DEB now!
10-day predictions


NORAD ID: 40918
Int'l Code: 1982-118L
Perigee: 580.1 km
Apogee: 766.9 km
Inclination: 98.5 °
Period: 98.1 minutes
Semi major axis: 7044 km
RCS: Unknown
Launch date: December 21, 1982
Source: United States (US)
Launch site: AIR FORCE WESTERN TEST RANGE (AFWTR)

Note: This is SATELLITE DEBRIS
aabbcc
Your satellite tracking list
Your tracking list is empty




NASA's NSSDC Master Catalog

Two Line Element Set (TLE):
1 40918U 82118L   19047.90387917 +.00003062 +00000-0 +47336-3 0  9994
2 40918 098.4524 287.0527 0132591 297.1878 061.5862 14.68333781163518
Source of the keplerian elements: AFSPC